Regional Weather Roundup
Issued by NWS

Home | Current Version | Previous Version | Graphics & Text | Print | Product List | Glossary On
Versions: 1 2 3 4 5 6 7 8 9 10 11 12 13 14 15 16 17 18 19 20 21 22 23 24 25 26 27 28 29 30 31 32 33 34 35 36 37 38 39 40 41 42 43 44 45 46 47 48 49 50
000
ASUS43 KBIS 230659
RWRND

NORTH DAKOTA REGIONAL WEATHER ROUNDUP
NATIONAL WEATHER SERVICE BISMARCK ND
200 AM CDT THU OCT 23 2014

NOTE: "FAIR" INDICATES FEW OR NO CLOUDS BELOW 12,000 FEET WITH NO
SIGNIFICANT WEATHER AND/OR OBSTRUCTIONS TO VISIBILITY.


NDZ001>003-009>011-017-230800-
NORTHWEST NORTH DAKOTA

CITY           SKY/WX    TMP DP  RH WIND       PRES   REMARKS
WILLISTON      CLEAR     38  30  73 SW3       29.86S
MINOT          CLEAR     49  34  56 SW10      29.83S
$$

NDZ018>021-031>035-040>046-230800-
SOUTHWEST NORTH DAKOTA

CITY           SKY/WX    TMP DP  RH WIND       PRES   REMARKS
BISMARCK       CLEAR     43  34  70 W5        29.92S
GARRISON         N/A     41  36  82 W6        29.87S
HETTINGER ARPT CLEAR     35  27  72 CALM      29.96F
$$

NDZ004>008-012>016-024-026-027-054-230800-
NORTHEAST NORTH DAKOTA

CITY           SKY/WX    TMP DP  RH WIND       PRES   REMARKS
GRAND FORKS    PTCLDY    45  44  97 SW7       29.84S
DEVILS LAKE    CLOUDY    54  43  66 SW10      29.82S
$$

NDZ022-023-025-028>030-036>039-047>053-230800-
SOUTHEAST NORTH DAKOTA

CITY           SKY/WX    TMP DP  RH WIND       PRES   REMARKS
FARGO          CLEAR     48  46  93 SW8       29.89S
$$




USA.gov is the U.S. government's official web portal to all federal, state and local government web resources and services.